CAPE
0 0 0 0 0 0 0 0 0 0 0 0 0 0 0 0 0 0 0 0 0 0 0 0 0 0 0 0 27 0 0 0 0 22 770 684 467 11 19 115 62 171 307 116 61 99 99
0 0 0 0 0 0 0 0 0 0 0 0 0 0 0 0 0 0 0 0 0 0 0 0 0 0 0 0 53 0 0 0 62 612 1105 524 315 120 274 82 100 237 159 134 76 168 69
0 0 0 0 0 0 0 0 0 0 0 0 0 0 0 0 0 0 0 0 0 0 0 0 0 0 0 0 118 17 56 12 302 732 512 247 268 251 343 14 6 31 2 1 7 230 288
0 0 0 0 0 0 0 0 0 0 0 0 0 0 0 0 0 0 0 0 0 0 0 0 0 0 0 0 7 166 214 236 324 283 247 186 256 68 66 0 0 0 1 16 151 321 386
0 0 0 0 0 0 0 0 0 0 0 0 0 0 0 0 0 0 0 0 0 0 0 0 0 0 0 0 0 29 122 279 267 263 267 213 231 20 2 0 0 9 123 75 159 208 468
0 0 0 0 0 0 0 0 0 0 0 0 0 0 0 0 0 0 0 0 0 0 0 0 0 0 0 0 0 12 103 147 204 232 277 266 238 70 2 1 4 147 58 17 20 53 87
0 0 0 0 0 0 0 0 0 0 0 0 0 0 0 0 0 0 0 0 0 0 0 0 0 0 0 0 0 22 108 161 119 101 108 121 43 41 17 0 53 136 74 1 0 14 1
0 0 0 0 0 0 0 0 0 0 0 0 0 0 0 0 0 0 0 0 0 0 0 0 0 0 0 0 0 0 10 47 43 93 97 116 34 5 0 17 147 82 21 1 1 18 2
0 0 0 0 0 0 0 0 0 0 0 0 0 0 0 0 0 0 0 0 0 0 0 0 0 0 0 0 0 0 0 42 0 10 148 82 101 27 3 10 64 16 0 11 5 0 0
0 0 0 0 0 0 0 0 0 0 0 0 0 0 0 0 0 0 0 0 0 0 0 0 0 0 0 0 0 0 0 0 0 0 1 29 92 22 8 6 39 1 11 5 0 0 5
0 0 0 0 0 0 0 0 0 0 0 0 0 0 0 0 0 0 0 0 0 0 0 0 0 0 0 0 0 0 0 0 0 0 0 2 6 31 59 80 33 21 0 0 0 0 0
0 0 0 0 0 0 0 0 0 0 0 0 0 0 0 0 0 0 0 0 0 0 0 0 0 0 0 0 0 0 0 0 0 0 0 0 0 0 0 4 12 0 0 0 0 0 0
0 0 0 0 0 0 0 0 0 0 0 0 0 0 0 0 0 0 0 0 0 0 0 0 0 0 0 0 0 0 0 0 0 0 0 0 0 0 0 0 0 0 0 0 0 0 16
0 0 0 0 0 0 0 0 0 0 0 0 0 0 0 0 0 0 0 0 0 0 0 0 0 0 0 0 0 0 0 0 0 0 0 0 0 0 0 0 0 0 0 0 1 0 1
0 0 0 0 0 0 0 0 0 0 0 0 0 0 0 0 0 0 0 0 0 0 0 0 0 0 0 0 0 0 0 0 0 0 0 0 0 0 0 11 1 0 0 0 0 0 0
0 0 0 0 0 0 0 0 0 0 0 0 0 0 0 0 0 0 0 0 0 0 0 0 0 0 0 0 0 0 0 0 0 0 0 0 0 0 0 0 0 0 0 0 0 0 0
1 0 0 0 0 0 0 0 0 0 0 0 0 0 0 0 0 0 0 0 0 0 0 0 0 0 0 0 0 0 0 0 0 0 0 0 0 0 0 0 0 10 0 0 0 0 0
3 1 1 0 0 0 0 0 0 0 0 0 0 0 0 0 0 0 0 0 0 0 0 0 0 0 0 0 0 0 0 0 0 0 0 0 0 0 0 0 0 0 0 0 7 0 0
3 3 3 3 0 0 0 0 0 0 0 0 0 0 0 0 0 0 0 0 0 0 0 0 0 0 0 0 0 0 0 0 0 0 0 0 0 0 0 0 0 0 0 2 0 0 0
3 3 0 1 2 0 0 0 0 0 0 0 0 0 0 0 0 0 0 0 0 0 0 0 0 0 0 0 0 0 0 0 0 0 0 0 0 0 0 0 0 0 0 0 0 0 0
3 3 3 2 1 0 0 0 0 0 0 0 0 0 0 0 0 0 0 0 0 0 0 0 0 0 0 0 0 0 0 0 0 0 0 0 0 0 0 0 0 0 0 0 0 0 0
2 1 2 1 1 0 0 0 0 0 0 0 0 0 0 0 0 0 0 0 0 0 0 0 0 0 0 0 0 0 0 0 0 0 0 0 0 0 0 0 0 0 0 0 0 0 0
1 0 0 2 1 0 0 0 0 0 0 0 0 0 0 0 0 0 0 0 0 0 0 0 0 0 0 0 0 0 0 0 0 0 0 0 0 0 0 0 0 0 0 0 0 0 0
2 0 2 1 1 1 0 0 0 0 0 0 0 0 0 0 0 0 0 0 0 0 0 0 0 0 0 0 0 0 0 0 0 0 0 0 0 0 0 0 0 0 0 0 0 0 0
2 2 3 1 1 2 0 2 0 0 0 0 0 0 0 0 0 0 0 0 0 0 0 0 0 0 0 0 0 0 0 0 0 0 0 0 0 0 0 0 0 0 0 0 0 0 0
1 1 1 1 1 0 0 1 3 0 0 0 0 0 0 0 0 0 0 0 0 0 0 0 0 0 0 0 0 0 0 0 0 0 0 0 0 0 0 0 0 0 0 0 0 0 0
2 1 1 1 1 0 0 0 0 0 0 0 0 0 0 0 0 0 0 0 0 0 0 0 0 0 0 0 0 0 0 0 0 0 0 0 0 0 0 0 0 0 0 1 0 0 0
2 1 1 2 1 2 0 0 0 0 0 0 0 0 0 0 0 0 0 0 0 0 0 0 0 0 0 0 0 0 0 0 0 0 0 1 2 1 1 3 0 0 0 1 0 0 0
0 1 3 1 0 0 2 0 0 0 0 0 0 0 0 0 0 0 0 0 0 0 0 0 0 0 0 0 0 0 0 0 0 0 0 0 9 5 8 1 0 0 0 0 0 0 0
CIN
-0 -0 -0 -0 -0 -0 -0 -0 -0 -0 -0 -0 -0 -0 -0 -0 -0 -0 -0 -0 -0 -0 -0 -0 -0 -0 -0 -0 -56 -0 -0 -0 -0 -225 -132 -48 -90 -112 -107 -117 -65 -120 -29 -4 -7 -39 -57
-0 -0 -0 -0 -0 -0 -0 -0 -0 -0 -0 -0 -0 -0 -0 -0 -0 -0 -0 -0 -0 -0 -0 -0 -0 -0 -0 -0 -123 -0 -0 -0 -194 -141 -26 -4 -14 -39 -46 -53 -37 -33 -63 -85 -60 -4 -65
-0 -0 -0 -0 -0 -0 -0 -0 -0 -0 -0 -0 -0 -0 -0 -0 -0 -0 -0 -0 -0 -0 -0 -0 -0 -0 -0 -0 -103 -160 -256 -183 -129 -44 -3 -0 -10 -20 -9 -109 -70 -127 -7 -18 -79 -16 -4
-0 -0 -0 -0 -0 -0 -0 -0 -0 -0 -0 -0 -0 -0 -0 -0 -0 -0 -0 -0 -0 -0 -0 -0 -0 -0 -0 -0 -37 -101 -83 -86 -59 -39 -27 -27 -36 -132 -307 -0 -11 -0 -25 -119 -40 -19 -6
-0 -0 -0 -0 -0 -0 -0 -0 -0 -0 -0 -0 -0 -0 -0 -0 -0 -0 -0 -0 -0 -0 -0 -0 -0 -0 -0 -0 -0 -149 -97 -37 -17 -22 -24 -33 -28 -197 -93 -0 -0 -68 -49 -70 -5 -15 -9
-0 -0 -0 -0 -0 -0 -0 -0 -0 -0 -0 -0 -0 -0 -0 -0 -0 -0 -0 -0 -0 -0 -0 -0 -0 -0 -0 -0 -0 -81 -48 -41 -16 -11 -15 -22 -24 -173 -142 -49 -56 -22 -75 -13 -13 -3 -8
-0 -0 -0 -0 -0 -0 -0 -0 -0 -0 -0 -0 -0 -0 -0 -0 -0 -0 -0 -0 -0 -0 -0 -0 -0 -0 -0 -0 -0 -30 -52 -39 -36 -38 -22 -18 -36 -197 -138 -0 -127 -63 -22 -31 -0 -6 -1
-0 -0 -0 -0 -0 -0 -0 -0 -0 -0 -0 -0 -0 -0 -0 -0 -0 -0 -0 -0 -0 -0 -0 -0 -0 -0 -0 -0 -0 -0 -27 -62 -67 -69 -40 -7 -91 -36 -2 -44 -25 -3 -22 -70 -11 -10 -22
-0 -0 -0 -0 -0 -0 -0 -0 -0 -0 -0 -0 -0 -0 -0 -0 -0 -0 -0 -0 -0 -0 -0 -0 -0 -0 -0 -0 -0 -0 -0 -41 -0 -35 -16 -44 -10 -53 -41 -87 -58 -4 -0 -9 -3 -0 -0
-0 -0 -0 -0 -0 -0 -0 -0 -0 -0 -0 -0 -0 -0 -0 -0 -0 -0 -0 -0 -0 -0 -0 -0 -0 -0 -0 -0 -0 -0 -0 -0 -0 -0 -4 -40 -24 -41 -81 -34 -8 -0 -12 -10 -0 -0 -4
-0 -0 -0 -0 -0 -0 -0 -0 -0 -0 -0 -0 -0 -0 -0 -0 -0 -0 -0 -0 -0 -0 -0 -0 -0 -0 -0 -0 -0 -0 -0 -0 -0 -0 -0 -5 -4 -7 -6 -8 -5 -3 -0 -0 -0 -0 -0
-0 -0 -0 -0 -0 -0 -0 -0 -0 -0 -0 -0 -0 -0 -0 -0 -0 -0 -0 -0 -0 -0 -0 -0 -0 -0 -0 -0 -0 -0 -0 -0 -0 -0 -0 -0 -0 -0 -0 -16 -6 -0 -0 -0 -0 -0 -2
-0 -0 -0 -0 -0 -0 -0 -0 -0 -0 -0 -0 -0 -0 -0 -0 -0 -0 -0 -0 -0 -0 -0 -0 -0 -0 -0 -0 -0 -0 -0 -0 -0 -0 -0 -0 -0 -0 -0 -0 -0 -0 -0 -0 -0 -0 -26
-0 -0 -0 -0 -0 -0 -0 -0 -0 -0 -0 -0 -0 -0 -0 -0 -0 -0 -0 -0 -0 -0 -0 -0 -0 -0 -0 -0 -0 -0 -0 -0 -0 -0 -0 -0 -0 -0 -0 -0 -0 -0 -0 -0 -6 -0 -6
-0 -0 -0 -0 -0 -0 -0 -0 -0 -0 -0 -0 -0 -0 -0 -0 -0 -0 -0 -0 -0 -0 -0 -0 -0 -0 -0 -0 -0 -0 -0 -0 -0 -0 -0 -0 -0 -0 -0 -14 -5 -0 -0 -0 -0 -0 -0
-0 -0 -0 -0 -0 -0 -0 -0 -0 -0 -0 -0 -0 -0 -0 -0 -0 -0 -0 -0 -0 -0 -0 -0 -0 -0 -0 -0 -0 -0 -0 -0 -0 -0 -0 -0 -0 -0 -0 -0 -0 -0 -0 -0 -0 -0 -0
-0 -0 -0 -0 -0 -0 -0 -0 -0 -0 -0 -0 -0 -0 -0 -0 -0 -0 -0 -0 -0 -0 -0 -0 -0 -0 -0 -0 -0 -0 -0 -0 -0 -0 -0 -0 -0 -0 -0 -0 -0 -8 -4 -0 -0 -0 -0
-0 -0 -0 -0 -0 -0 -0 -0 -0 -0 -0 -0 -0 -0 -0 -0 -0 -0 -0 -0 -0 -0 -0 -0 -0 -0 -0 -0 -0 -0 -0 -0 -0 -0 -0 -0 -0 -0 -0 -0 -0 -0 -0 -0 -6 -0 -0
-0 -0 -0 -0 -0 -0 -0 -0 -0 -0 -0 -0 -0 -0 -0 -0 -0 -0 -0 -0 -0 -0 -0 -0 -0 -0 -0 -0 -0 -0 -0 -0 -0 -0 -0 -0 -0 -0 -0 -0 -0 -0 -0 -4 -0 -0 -0
-0 -0 -0 -0 -0 -0 -0 -0 -0 -0 -0 -0 -0 -0 -0 -0 -0 -0 -0 -0 -0 -0 -0 -0 -0 -0 -0 -0 -0 -0 -0 -0 -0 -0 -0 -0 -0 -0 -0 -0 -0 -0 -0 -0 -0 -1 -0
-0 -0 -0 -0 -0 -0 -0 -0 -0 -0 -0 -0 -0 -0 -0 -0 -0 -0 -0 -0 -0 -0 -0 -0 -0 -0 -0 -0 -0 -0 -0 -0 -0 -0 -0 -0 -0 -0 -0 -0 -0 -0 -0 -0 -0 -0 -2
-0 -0 -0 -0 -0 -0 -0 -0 -0 -0 -0 -0 -0 -0 -0 -0 -0 -0 -0 -0 -0 -0 -0 -0 -0 -0 -0 -0 -0 -0 -0 -0 -0 -0 -0 -0 -0 -0 -0 -0 -0 -0 -0 -0 -0 -0 -0
-0 -0 -0 -0 -0 -0 -0 -0 -0 -0 -0 -0 -0 -0 -0 -0 -0 -0 -0 -0 -0 -0 -0 -0 -0 -0 -0 -0 -0 -0 -0 -0 -0 -0 -0 -0 -0 -0 -0 -0 -0 -0 -0 -0 -0 -0 -0
-0 -0 -0 -0 -0 -0 -0 -0 -0 -0 -0 -0 -0 -0 -0 -0 -0 -0 -0 -0 -0 -0 -0 -0 -0 -0 -0 -0 -0 -0 -0 -0 -0 -0 -0 -0 -0 -0 -0 -0 -0 -0 -0 -0 -0 -0 -0
-0 -0 -0 -0 -0 -0 -0 -1 -0 -0 -0 -0 -0 -0 -0 -0 -0 -0 -0 -0 -0 -0 -0 -0 -0 -0 -0 -0 -0 -0 -0 -0 -0 -0 -0 -0 -0 -0 -0 -0 -0 -0 -0 -0 -0 -0 -0
-0 -0 -0 -0 -0 -0 -0 -0 -1 -0 -0 -0 -0 -0 -0 -0 -0 -0 -0 -0 -0 -0 -0 -0 -0 -0 -0 -0 -0 -0 -0 -0 -0 -0 -0 -0 -0 -0 -0 -0 -0 -0 -0 -0 -0 -0 -0
-0 -0 -0 -0 -0 -0 -0 -0 -0 -0 -0 -0 -0 -0 -0 -0 -0 -0 -0 -0 -0 -0 -0 -0 -0 -0 -0 -0 -0 -0 -0 -0 -0 -0 -0 -0 -0 -0 -0 -0 -0 -0 -4 -0 -0 -0 -0
-0 -0 -0 -0 -1 -2 -0 -0 -0 -3 -0 -0 -0 -0 -0 -0 -0 -0 -0 -0 -0 -0 -0 -0 -0 -0 -0 -0 -0 -0 -0 -0 -0 -0 -0 -1 -1 -2 -3 -2 -0 -0 -0 -26 -0 -0 -0
-0 -0 -0 -2 -0 -1 -4 -0 -0 -0 -0 -0 -0 -0 -0 -0 -0 -0 -0 -0 -0 -0 -0 -0 -0 -0 -0 -0 -0 -0 -0 -0 -0 -0 -0 -2 -3 -3 -2 -3 -0 -0 -0 -0 -0 -0 -0
Wind_Speed
16 16 17 17 18 17 17 16 16 17 19 21 22 22 24 27 27 26 26 25 24 24 22 21 19 18 16 14 11 12 18 19 22 21 20 16 15 17 19 19 14 12 16 12 14 16 15
17 18 19 19 20 20 19 19 17 16 18 18 20 22 23 24 26 28 27 27 27 26 24 23 21 19 18 15 13 10 16 17 19 18 16 14 10 13 7 8 14 15 15 17 14 14 15
19 20 21 22 22 22 23 23 22 20 19 17 16 18 22 25 26 27 29 28 28 27 26 24 20 17 23 17 10 13 21 18 18 17 15 14 13 15 27 26 9 23 16 20 16 15 14
21 23 24 24 24 25 25 25 24 23 22 19 16 13 15 21 25 26 28 29 29 27 26 23 15 16 24 14 18 7 22 18 21 19 16 14 15 22 21 8 6 5 19 18 14 17 17
24 25 25 26 26 27 28 27 25 24 25 21 17 15 11 14 21 24 26 28 29 26 24 18 16 16 27 13 10 7 18 20 18 19 17 17 11 24 24 7 10 13 16 17 18 18 16
25 26 27 27 28 29 29 29 28 25 25 23 18 15 11 10 13 22 24 26 20 24 18 15 27 21 22 18 9 8 12 26 25 21 19 19 18 8 19 10 5 4 15 20 14 16 15
27 28 29 29 28 28 28 28 28 25 23 21 17 13 9 6 7 16 21 9 7 5 6 3 5 5 13 12 16 17 11 4 4 20 25 22 23 10 12 13 12 15 22 22 18 7 11
29 30 30 30 29 30 29 29 28 24 23 20 16 10 7 8 10 12 12 10 15 18 11 14 19 23 17 10 17 6 4 3 30 32 29 29 26 16 27 25 17 16 18 18 9 15 17
30 31 32 32 32 31 30 29 28 25 23 20 15 7 9 11 12 15 14 16 18 21 11 12 9 6 5 5 6 20 2 4 22 36 36 34 31 23 28 29 25 24 18 13 19 23 9
32 33 34 33 32 32 32 30 30 27 24 21 16 10 10 13 15 15 16 14 15 17 8 12 11 3 1 12 21 15 24 5 31 38 38 39 32 9 15 23 26 28 31 29 26 24 24
34 34 34 34 34 35 35 34 33 31 27 23 17 13 11 13 12 11 14 13 14 17 16 19 16 10 12 5 11 7 18 22 8 37 40 42 40 40 40 26 32 32 29 30 29 27 25
34 34 35 35 36 37 38 37 35 33 28 22 17 15 13 13 13 11 12 13 16 18 16 17 14 14 16 13 11 18 13 6 27 19 40 43 42 44 43 40 34 34 34 34 32 28 28
34 34 35 36 38 39 39 39 36 33 27 21 17 13 11 13 12 12 12 15 17 14 14 15 13 13 12 13 13 13 12 3 7 18 28 32 36 22 12 37 39 29 37 38 34 29 25
35 36 37 38 38 39 39 38 35 32 29 22 19 14 10 12 12 13 14 15 13 12 12 18 10 12 13 13 9 11 12 12 14 11 12 34 35 31 4 10 30 33 36 38 40 36 29
36 36 38 39 39 39 39 38 37 35 32 24 19 11 11 11 13 15 16 15 10 14 17 16 15 12 12 13 8 10 8 12 19 22 24 28 32 33 30 24 19 19 29 34 44 43 42
36 37 38 39 39 39 39 39 38 36 32 23 14 15 12 9 14 16 16 13 7 10 16 13 11 11 10 14 8 8 16 21 21 21 23 31 29 34 35 32 23 26 31 34 34 42 42
37 37 38 39 39 40 40 39 38 36 33 20 12 14 16 13 13 15 14 19 4 19 10 9 14 17 18 16 18 10 5 28 20 25 27 32 27 33 37 34 32 18 21 19 28 33 42
37 37 38 39 40 40 40 39 37 37 35 23 16 16 19 17 13 12 10 19 14 9 11 10 8 4 10 20 16 16 12 20 23 27 24 32 39 36 37 38 38 36 28 35 31 30 29
38 38 38 39 40 39 39 39 37 35 34 21 18 17 20 16 5 16 20 15 14 19 24 22 16 21 24 19 17 14 13 20 21 24 24 29 25 35 34 27 27 33 34 27 33 39 41
38 38 38 38 39 39 39 39 38 36 32 25 19 17 20 18 20 23 24 20 21 18 21 21 23 21 19 21 22 22 19 19 19 21 17 22 24 24 28 37 44 43 40 38 36 30 33
37 37 38 38 38 38 39 38 37 37 32 24 21 19 21 21 25 23 22 20 23 23 26 26 21 22 26 26 26 24 28 30 31 21 22 23 30 31 34 41 45 49 45 42 42 39 40
36 36 37 37 37 37 37 37 36 36 32 24 22 23 26 25 22 25 18 22 23 26 27 27 23 26 27 26 27 31 31 28 28 30 29 27 36 35 41 37 41 47 51 44 46 45 44
36 37 36 36 36 37 36 36 35 35 31 24 27 26 24 26 23 25 24 24 25 27 20 24 23 26 26 28 30 29 27 26 24 28 30 29 31 33 40 37 42 49 39 45 45 46 47
36 37 37 37 36 36 36 35 34 33 32 27 29 29 26 26 26 28 26 22 22 27 27 26 25 24 26 30 30 26 23 21 20 20 19 24 25 27 33 35 39 34 38 43 47 48 46
38 38 38 37 37 37 36 35 34 33 32 29 29 27 26 27 29 24 25 27 29 25 21 24 24 24 25 27 31 28 32 27 23 13 14 17 21 23 26 28 37 41 42 40 41 44 46
38 38 38 38 38 37 36 35 33 32 32 30 28 25 27 25 20 29 28 27 26 28 28 24 24 20 22 27 26 28 31 32 28 26 27 29 19 21 22 21 37 40 38 37 37 45 39
38 38 38 38 38 37 36 35 34 32 32 30 24 26 26 28 20 28 28 28 25 25 25 26 28 26 23 23 25 28 30 29 31 29 28 28 28 41 42 38 28 35 38 35 33 43 34
38 38 38 38 38 37 36 35 34 32 31 30 27 21 27 26 31 24 24 24 23 19 20 27 30 22 23 24 25 29 30 29 31 32 37 38 40 38 41 39 50 31 38 32 38 40 39
37 38 38 38 37 37 36 35 33 31 29 29 25 29 30 26 24 42 22 11 12 13 20 22 22 26 21 25 25 27 30 27 24 31 35 34 39 43 41 44 52 52 51 46 44 44 39
Wind_Direction
320 318 316 313 310 305 300 294 287 283 280 277 272 265 265 273 271 267 267 267 265 265 263 257 252 244 240 166 155 64 110 114 130 147 177 102 101 133 137 170 154 139 205 134 108 95 109
324 322 320 317 314 310 305 300 292 285 281 275 272 268 262 259 262 269 266 267 267 265 263 263 257 271 282 206 300 62 109 120 140 152 188 202 144 213 250 115 9 298 315 257 225 122 111
327 326 324 320 316 313 309 305 300 292 284 275 266 263 263 264 259 258 267 266 267 266 262 265 286 305 237 222 342 276 156 146 163 177 205 226 223 247 276 336 49 20 349 210 217 164 99
330 329 326 323 319 316 312 308 302 296 290 279 268 254 251 253 258 255 257 264 267 266 267 273 308 309 257 301 269 331 206 170 200 208 202 210 234 327 324 269 243 308 103 127 138 124 57
333 330 328 325 322 319 316 312 305 299 294 282 269 257 241 237 249 250 249 256 262 269 272 287 295 302 262 311 319 317 196 189 190 206 203 211 283 34 23 198 204 106 117 143 71 88 71
334 332 330 328 325 323 319 315 309 302 296 287 272 256 241 225 221 249 246 243 283 275 286 292 266 285 218 293 308 307 297 241 241 222 214 209 203 62 50 148 190 219 124 36 112 87 69
336 334 332 329 327 324 321 317 314 306 299 289 274 254 226 184 170 229 281 47 46 42 287 193 309 273 326 315 299 289 301 336 353 212 230 223 240 313 14 173 206 224 346 331 255 112 79
337 336 334 331 329 328 325 323 319 312 305 296 281 248 180 135 124 121 61 80 340 292 346 183 209 274 299 334 303 301 307 283 254 241 239 232 236 348 291 271 225 223 9 15 208 241 241
338 337 336 335 333 331 328 326 323 318 312 304 286 223 161 141 138 103 117 324 264 269 150 150 166 215 245 205 234 239 214 226 213 245 244 246 250 309 305 269 259 247 352 319 282 268 244
341 340 339 337 334 333 332 329 327 322 318 311 297 256 180 139 109 130 121 167 225 245 54 124 133 55 178 313 246 202 208 239 263 240 253 256 266 330 326 247 260 259 295 296 280 268 260
343 341 339 337 336 336 334 332 330 326 320 315 300 276 190 115 164 165 176 199 218 181 18 107 99 347 335 111 226 311 186 202 243 262 257 254 258 268 269 245 289 273 281 285 277 264 253
340 339 338 337 337 337 336 333 330 328 318 307 293 275 235 124 130 161 182 197 180 137 55 105 111 138 149 160 169 247 342 181 218 252 269 257 258 262 265 273 290 286 273 271 264 249 247
340 339 338 338 338 338 338 336 331 325 315 297 281 251 185 200 193 207 188 164 141 137 124 110 130 125 173 171 153 154 163 99 336 307 292 281 256 229 250 271 269 297 274 273 262 255 296
339 339 339 339 339 338 337 335 331 327 317 291 269 234 154 146 195 191 171 169 157 146 215 5 168 191 186 194 130 151 181 192 193 205 239 287 284 274 290 253 283 283 277 273 259 263 291
337 337 338 338 338 337 336 335 332 329 322 299 263 177 127 110 81 151 173 162 193 264 282 251 245 195 184 169 89 182 172 208 221 329 313 299 277 292 281 312 306 284 284 280 269 272 265
336 335 335 336 336 336 335 335 334 330 324 306 233 206 141 187 85 154 167 182 120 269 254 218 202 200 185 231 177 212 224 348 323 328 320 269 257 275 282 287 299 287 289 287 284 272 270
335 334 334 334 334 334 334 334 335 333 327 303 190 188 348 243 153 167 168 357 58 12 45 85 236 246 246 235 243 220 196 266 345 309 312 302 247 256 266 267 283 306 302 298 294 281 272
334 333 334 335 334 333 333 333 333 336 332 325 270 243 326 273 160 118 335 357 27 68 50 50 57 70 18 349 354 351 354 341 341 314 328 301 288 259 258 270 274 285 295 283 289 285 287
333 332 331 333 334 333 332 332 331 332 340 300 273 294 346 258 84 356 1 23 30 360 336 352 0 345 338 343 340 347 342 331 343 336 331 317 314 303 296 298 288 282 284 300 285 280 276
331 330 331 330 332 332 332 331 330 328 326 326 294 311 327 5 359 337 343 358 346 3 354 354 343 342 343 337 333 331 330 328 333 335 337 329 313 301 297 290 278 282 284 283 288 282 280
328 329 329 329 330 330 331 331 330 329 321 330 327 334 329 324 332 350 354 350 342 340 340 341 348 343 333 330 330 329 324 320 319 329 328 323 309 303 297 290 281 275 280 280 278 281 275
324 325 324 325 327 328 329 330 331 332 322 349 331 332 317 325 343 342 357 357 346 341 339 337 337 331 330 330 328 323 322 322 318 314 311 310 302 301 294 295 290 283 272 279 276 276 275
322 325 322 322 323 325 326 328 330 335 334 337 337 329 330 325 340 340 346 341 341 340 348 342 342 335 331 330 326 325 320 316 310 309 307 306 304 302 295 298 294 283 284 278 277 274 275
324 324 324 324 323 323 324 326 328 330 337 328 332 326 329 326 331 331 339 345 346 338 334 333 331 331 330 329 328 327 320 312 304 303 305 304 300 298 297 298 286 288 291 284 280 276 275
326 325 324 323 323 323 325 326 327 327 328 328 330 336 336 326 327 339 339 336 333 340 341 336 334 337 338 336 331 333 329 327 328 298 302 304 306 302 296 292 247 253 274 285 285 282 277
326 325 324 324 324 323 324 325 326 327 326 329 327 341 332 333 345 331 333 335 335 335 337 341 344 347 346 337 337 332 328 328 328 326 319 316 302 300 300 243 242 280 289 296 297 282 283
326 325 324 325 325 323 323 323 324 326 326 329 335 341 336 326 340 335 330 330 336 337 337 338 339 335 340 338 333 330 326 327 321 320 321 314 304 278 271 250 250 297 296 297 287 281 293
323 324 324 324 324 324 324 323 324 328 328 332 329 346 338 331 323 331 336 333 334 337 338 336 340 358 344 338 336 334 331 331 325 316 297 283 279 257 258 254 261 305 304 296 294 294 289
322 322 323 323 323 322 322 323 323 326 329 331 330 329 331 329 325 296 325 314 319 326 332 336 333 335 343 341 339 337 331 331 263 261 286 260 293 297 299 296 292 287 285 287 286 279 290